Time,TemperatureF,DewpointF,PressureIn,WindDirection,WindDirectionDegrees,WindSpeedMPH,WindSpeedGustMPH,Humidity,HourlyPrecipIn,Conditions,Clouds,dailyrainin,SoftwareType,DateUTC
2013-08-14 00:01:00,57.6,50.8,29.82,East,90,3.5,3.5,78,0.00,CLR,,0.00,WeatherDisplay:10.37,2013-08-14 04:01:00,
2013-08-14 00:02:00,57.6,50.8,29.82,WNW,292,3.5,3.5,78,0.00,CLR,,0.00,WeatherDisplay:10.37,2013-08-14 04:02:00,
2013-08-14 00:03:00,57.6,50.8,29.82,West,270,3.5,3.5,78,0.00,CLR,,0.00,WeatherDisplay:10.37,2013-08-14 04:03:00,
2013-08-14 00:06:00,57.4,50.9,29.82,West,270,2.3,2.3,79,0.00,CLR,,0.00,WeatherDisplay:10.37,2013-08-14 04:06:00,
2013-08-14 00:07:00,57.2,50.7,29.82,WNW,292,3.5,3.5,79,0.00,CLR,,0.00,WeatherDisplay:10.37,2013-08-14 04:07:00,
2013-08-14 00:12:00,57.0,50.5,29.82,West,270,3.5,3.5,79,0.00,CLR,,0.00,WeatherDisplay:10.37,2013-08-14 04:12:00,
2013-08-14 00:17:00,56.8,50.7,29.82,West,270,1.1,1.1,80,0.00,CLR,,0.00,WeatherDisplay:10.37,2013-08-14 04:17:00,
2013-08-14 00:22:00,56.5,50.4,29.82,SW,225,0.0,0.0,80,0.00,CLR,,0.00,WeatherDisplay:10.37,2013-08-14 04:22:00,
2013-08-14 00:27:00,56.1,50.3,29.83,WNW,292,1.7,0.0,81,0.00,CLR,,0.00,WeatherDisplay:10.37,2013-08-14 04:27:00,
2013-08-14 00:32:00,55.9,50.2,29.83,WNW,292,2.7,2.7,81,0.00,CLR,,0.00,WeatherDisplay:10.37,2013-08-14 04:32:00,
2013-08-14 00:37:00,55.9,50.2,29.82,ESE,112,1.1,1.1,81,0.00,CLR,,0.00,WeatherDisplay:10.37,2013-08-14 04:37:00,
2013-08-14 00:42:00,55.6,50.2,29.82,West,270,2.3,2.3,82,0.00,CLR,,0.00,WeatherDisplay:10.37,2013-08-14 04:42:00,
2013-08-14 00:47:00,55.6,50.8,29.82,WSW,248,1.7,1.7,84,0.00,CLR,,0.00,WeatherDisplay:10.37,2013-08-14 04:47:00,
2013-08-14 00:52:00,55.0,50.3,29.82,West,270,0.0,0.0,84,0.00,CLR,,0.00,WeatherDisplay:10.37,2013-08-14 04:52:00,
2013-08-14 00:57:00,54.7,50.3,29.82,WSW,248,2.7,2.7,85,0.00,CLR,,0.00,WeatherDisplay:10.37,2013-08-14 04:57:00,
2013-08-14 01:02:00,54.5,49.8,29.82,WSW,248,3.5,3.5,84,0.00,CLR,,0.00,WeatherDisplay:10.37,2013-08-14 05:02:00,
2013-08-14 01:07:00,54.5,49.8,29.82,WSW,248,3.7,3.7,84,0.00,CLR,,0.00,WeatherDisplay:10.37,2013-08-14 05:07:00,
2013-08-14 01:12:00,54.5,49.8,29.82,West,270,2.7,2.7,84,0.00,CLR,,0.00,WeatherDisplay:10.37,2013-08-14 05:12:00,
2013-08-14 01:17:00,54.5,49.8,29.82,West,270,2.7,2.7,84,0.00,CLR,,0.00,WeatherDisplay:10.37,2013-08-14 05:17:00,
2013-08-14 01:22:00,54.3,49.6,29.82,WSW,248,2.7,2.7,84,0.00,CLR,,0.00,WeatherDisplay:10.37,2013-08-14 05:22:00,
2013-08-14 01:27:00,54.3,49.6,29.82,WSW,248,3.5,3.5,84,0.00,CLR,,0.00,WeatherDisplay:10.37,2013-08-14 05:27:00,
2013-08-14 01:32:00,54.3,49.6,29.82,SW,225,3.5,3.5,84,0.00,CLR,,0.00,WeatherDisplay:10.37,2013-08-14 05:32:00,
2013-08-14 01:37:00,54.3,49.6,29.82,West,270,3.5,3.5,84,0.00,CLR,,0.00,WeatherDisplay:10.37,2013-08-14 05:37:00,
2013-08-14 01:42:00,54.3,49.6,29.82,SW,225,3.5,3.5,84,0.00,CLR,,0.00,WeatherDisplay:10.37,2013-08-14 05:42:00,
2013-08-14 01:47:00,54.3,49.6,29.82,West,270,3.5,3.5,84,0.00,CLR,,0.00,WeatherDisplay:10.37,2013-08-14 05:47:00,
2013-08-14 01:52:00,54.3,49.2,29.82,SW,225,4.6,4.6,83,0.00,CLR,,0.00,WeatherDisplay:10.37,2013-08-14 05:52:00,
2013-08-14 01:57:00,54.3,49.2,29.82,WSW,248,3.7,3.7,83,0.00,CLR,,0.00,WeatherDisplay:10.37,2013-08-14 05:57:00,
2013-08-14 02:02:00,54.3,49.2,29.83,SW,225,4.6,4.6,83,0.00,CLR,,0.00,WeatherDisplay:10.37,2013-08-14 06:02:00,
2013-08-14 02:07:00,54.3,49.2,29.83,West,270,3.7,3.7,83,0.00,CLR,,0.00,WeatherDisplay:10.37,2013-08-14 06:07:00,
2013-08-14 02:12:00,54.3,49.2,29.83,West,270,3.5,3.5,83,0.00,CLR,,0.00,WeatherDisplay:10.37,2013-08-14 06:12:00,
2013-08-14 02:17:00,54.3,49.2,29.83,WSW,248,3.5,3.5,83,0.00,CLR,,0.00,WeatherDisplay:10.37,2013-08-14 06:17:00,
2013-08-14 02:22:00,54.3,49.2,29.83,SW,225,2.3,2.6,83,0.00,CLR,,0.00,WeatherDisplay:10.37,2013-08-14 06:22:00,
2013-08-14 02:27:00,54.3,49.2,29.83,WSW,248,2.3,2.3,83,0.00,CLR,,0.00,WeatherDisplay:10.37,2013-08-14 06:27:00,
2013-08-14 02:32:00,54.0,49.6,29.83,WSW,248,2.3,2.3,85,0.00,CLR,,0.00,WeatherDisplay:10.37,2013-08-14 06:32:00,
2013-08-14 02:37:00,53.4,49.0,29.82,WSW,248,2.3,2.4,85,0.00,CLR,,0.00,WeatherDisplay:10.37,2013-08-14 06:37:00,
2013-08-14 02:42:00,53.4,48.7,29.82,WSW,248,3.5,3.5,84,0.00,CLR,,0.00,WeatherDisplay:10.37,2013-08-14 06:42:00,
2013-08-14 02:47:00,53.4,48.7,29.82,WSW,248,3.5,3.5,84,0.00,CLR,,0.00,WeatherDisplay:10.37,2013-08-14 06:47:00,
2013-08-14 02:52:00,53.4,48.7,29.82,WSW,248,3.5,3.5,84,0.00,CLR,,0.00,WeatherDisplay:10.37,2013-08-14 06:52:00,
2013-08-14 02:57:00,53.4,48.7,29.82,SW,225,3.7,3.7,84,0.00,CLR,,0.00,WeatherDisplay:10.37,2013-08-14 06:57:00,
2013-08-14 03:02:00,53.4,48.7,29.82,WSW,248,4.6,4.6,84,0.00,CLR,,0.00,WeatherDisplay:10.37,2013-08-14 07:02:00,
2013-08-14 03:07:00,53.4,48.7,29.82,WSW,248,3.5,3.5,84,0.00,CLR,,0.00,WeatherDisplay:10.37,2013-08-14 07:07:00,
2013-08-14 03:12:00,53.4,48.7,29.82,WSW,248,2.7,2.7,84,0.00,CLR,,0.00,WeatherDisplay:10.37,2013-08-14 07:12:00,
2013-08-14 03:17:00,53.4,48.7,29.82,West,270,3.2,3.2,84,0.00,CLR,,0.00,WeatherDisplay:10.37,2013-08-14 07:17:00,
2013-08-14 03:22:00,53.2,48.5,29.82,SW,225,4.2,4.2,84,0.00,CLR,,0.00,WeatherDisplay:10.37,2013-08-14 07:22:00,
2013-08-14 03:27:00,53.2,48.5,29.82,West,270,2.3,2.3,84,0.00,CLR,,0.00,WeatherDisplay:10.37,2013-08-14 07:27:00,
2013-08-14 03:32:00,53.1,48.4,29.82,SW,225,1.1,1.3,84,0.00,CLR,,0.00,WeatherDisplay:10.37,2013-08-14 07:32:00,
2013-08-14 03:37:00,52.7,48.3,29.82,SW,225,1.1,1.2,85,0.00,CLR,,0.00,WeatherDisplay:10.37,2013-08-14 07:37:00,
2013-08-14 03:42:00,52.3,48.2,29.82,SW,225,2.2,2.2,86,0.00,CLR,,0.00,WeatherDisplay:10.37,2013-08-14 07:42:00,
2013-08-14 03:47:00,51.8,48.1,29.82,WSW,248,2.3,2.3,87,0.00,CLR,,0.00,WeatherDisplay:10.37,2013-08-14 07:47:00,
2013-08-14 03:52:00,51.4,48.0,29.82,SW,225,2.3,2.3,88,0.00,CLR,,0.00,WeatherDisplay:10.37,2013-08-14 07:52:00,
2013-08-14 03:57:00,51.1,47.7,29.82,SW,225,0.0,0.0,88,0.00,CLR,,0.00,WeatherDisplay:10.37,2013-08-14 07:57:00,
2013-08-14 04:02:00,50.9,47.5,29.82,WSW,248,0.0,0.0,88,0.00,CLR,,0.00,WeatherDisplay:10.37,2013-08-14 08:02:00,
2013-08-14 04:07:00,50.7,47.6,29.82,SW,225,0.0,0.0,89,0.00,CLR,,0.00,WeatherDisplay:10.37,2013-08-14 08:07:00,
2013-08-14 04:12:00,50.4,47.3,29.82,SW,225,0.0,0.0,89,0.00,CLR,,0.00,WeatherDisplay:10.37,2013-08-14 08:12:00,
2013-08-14 04:17:00,50.2,47.1,29.82,WSW,248,2.7,2.7,89,0.00,CLR,,0.00,WeatherDisplay:10.37,2013-08-14 08:17:00,
2013-08-14 04:22:00,50.0,47.2,29.83,WSW,248,2.7,2.7,90,0.00,CLR,,0.00,WeatherDisplay:10.37,2013-08-14 08:22:00,
2013-08-14 04:27:00,49.8,47.0,29.83,WSW,248,3.2,3.2,90,0.00,CLR,,0.00,WeatherDisplay:10.37,2013-08-14 08:27:00,
2013-08-14 04:33:00,49.6,47.1,29.83,West,270,3.7,3.7,91,0.00,CLR,,0.00,WeatherDisplay:10.37,2013-08-14 08:33:00,
2013-08-14 04:38:00,49.8,47.6,29.83,WSW,248,4.6,4.6,92,0.00,CLR,,0.00,WeatherDisplay:10.37,2013-08-14 08:38:00,
2013-08-14 04:43:00,50.4,48.2,29.83,SW,225,4.6,4.6,92,0.00,CLR,,0.00,WeatherDisplay:10.37,2013-08-14 08:43:00,
2013-08-14 04:48:00,50.5,48.0,29.83,WSW,248,4.6,4.6,91,0.00,CLR,,0.00,WeatherDisplay:10.37,2013-08-14 08:48:00,
2013-08-14 04:53:00,50.7,47.9,29.83,SW,225,4.6,4.6,90,0.00,CLR,,0.00,WeatherDisplay:10.37,2013-08-14 08:53:00,
2013-08-14 04:58:00,50.9,48.1,29.83,WSW,248,4.6,4.6,90,0.00,CLR,,0.00,WeatherDisplay:10.37,2013-08-14 08:58:00,
2013-08-14 05:03:00,51.1,48.0,29.83,SW,225,3.5,3.5,89,0.00,CLR,,0.00,WeatherDisplay:10.37,2013-08-14 09:03:00,
2013-08-14 05:08:00,51.1,48.0,29.83,WSW,248,3.7,3.7,89,0.00,CLR,,0.00,WeatherDisplay:10.37,2013-08-14 09:08:00,
2013-08-14 05:13:00,51.3,48.2,29.83,WSW,248,4.6,4.6,89,0.00,CLR,,0.00,WeatherDisplay:10.37,2013-08-14 09:13:00,
2013-08-14 05:18:00,51.6,48.2,29.83,WSW,248,4.7,4.7,88,0.00,CLR,,0.00,WeatherDisplay:10.37,2013-08-14 09:18:00,
2013-08-14 05:23:00,51.8,48.1,29.83,WSW,248,5.8,5.8,87,0.00,CLR,,0.00,WeatherDisplay:10.37,2013-08-14 09:23:00,
2013-08-14 05:28:00,52.0,47.9,29.83,WSW,248,5.8,5.8,86,0.00,CLR,,0.00,WeatherDisplay:10.37,2013-08-14 09:28:00,
2013-08-14 05:33:00,52.0,47.9,29.83,SW,225,5.8,5.8,86,0.00,FEW,,0.00,WeatherDisplay:10.37,2013-08-14 09:33:00,
2013-08-14 05:38:00,52.0,47.9,29.84,WSW,248,5.8,5.8,86,0.00,FEW,,0.00,WeatherDisplay:10.37,2013-08-14 09:38:00,
2013-08-14 05:43:00,52.0,47.9,29.84,WSW,248,5.8,5.8,86,0.00,FEW,,0.00,WeatherDisplay:10.37,2013-08-14 09:43:00,
2013-08-14 05:48:00,51.8,47.7,29.84,West,270,5.3,5.3,86,0.00,FEW,,0.00,WeatherDisplay:10.37,2013-08-14 09:48:00,
2013-08-14 05:53:00,51.6,47.5,29.84,SW,225,4.7,4.7,86,0.00,FEW,,0.00,WeatherDisplay:10.37,2013-08-14 09:53:00,
2013-08-14 05:58:00,51.6,47.5,29.84,WSW,248,5.8,5.8,86,0.00,FEW,,0.00,WeatherDisplay:10.37,2013-08-14 09:58:00,
2013-08-14 06:03:00,51.6,47.5,29.84,SW,225,5.3,5.3,86,0.00,FEW,,0.00,WeatherDisplay:10.37,2013-08-14 10:03:00,
2013-08-14 06:08:00,51.6,47.5,29.84,WSW,248,5.8,5.8,86,0.00,FEW,,0.00,WeatherDisplay:10.37,2013-08-14 10:08:00,
2013-08-14 06:13:00,51.6,47.5,29.85,West,270,5.3,5.3,86,0.00,FEW,,0.00,WeatherDisplay:10.37,2013-08-14 10:13:00,
2013-08-14 06:18:00,51.6,47.5,29.85,WSW,248,5.8,5.8,86,0.00,FEW,,0.00,WeatherDisplay:10.37,2013-08-14 10:18:00,
2013-08-14 06:23:00,51.6,47.5,29.85,West,270,5.8,5.8,86,0.00,FEW,,0.00,WeatherDisplay:10.37,2013-08-14 10:23:00,
2013-08-14 06:28:00,51.6,47.5,29.85,SW,225,5.3,5.3,86,0.00,FEW,,0.00,WeatherDisplay:10.37,2013-08-14 10:28:00,
2013-08-14 06:33:00,51.6,47.5,29.85,WSW,248,5.8,5.8,86,0.00,CLR,,0.00,WeatherDisplay:10.37,2013-08-14 10:33:00,
2013-08-14 06:38:00,51.6,47.5,29.85,West,270,5.8,5.8,86,0.00,CLR,,0.00,WeatherDisplay:10.37,2013-08-14 10:38:00,
2013-08-14 06:43:00,52.0,47.6,29.85,SW,225,4.6,4.6,85,0.00,CLR,,0.00,WeatherDisplay:10.37,2013-08-14 10:43:00,
2013-08-14 06:48:00,52.3,47.6,29.85,WSW,248,5.8,5.8,84,0.00,CLR,,0.00,WeatherDisplay:10.37,2013-08-14 10:48:00,
2013-08-14 06:53:00,52.7,47.7,29.85,SW,225,5.8,5.8,83,0.00,CLR,,0.00,WeatherDisplay:10.37,2013-08-14 10:53:00,
2013-08-14 06:58:00,53.1,48.1,29.85,WSW,248,6.9,6.9,83,0.00,CLR,,0.00,WeatherDisplay:10.37,2013-08-14 10:58:00,
2013-08-14 07:03:00,53.2,48.2,29.86,SW,225,5.8,5.8,83,0.00,CLR,,0.00,WeatherDisplay:10.37,2013-08-14 11:03:00,
2013-08-14 07:08:00,53.6,48.2,29.86,SW,225,6.9,6.9,82,0.00,CLR,,0.00,WeatherDisplay:10.37,2013-08-14 11:08:00,
2013-08-14 07:13:00,54.0,48.3,29.86,SW,225,5.8,5.8,81,0.00,CLR,,0.00,WeatherDisplay:10.37,2013-08-14 11:13:00,
2013-08-14 07:18:00,54.0,48.3,29.86,SW,225,6.3,6.3,81,0.00,CLR,,0.00,WeatherDisplay:10.37,2013-08-14 11:18:00,
2013-08-14 07:23:00,53.6,47.9,29.87,WSW,248,6.3,6.3,81,0.00,CLR,,0.00,WeatherDisplay:10.37,2013-08-14 11:23:00,
2013-08-14 07:28:00,53.4,47.7,29.87,SSW,202,5.8,5.8,81,0.00,CLR,,0.00,WeatherDisplay:10.37,2013-08-14 11:28:00,
2013-08-14 07:33:00,53.6,47.9,29.87,WSW,248,5.8,5.8,81,0.00,CLR,,0.00,WeatherDisplay:10.37,2013-08-14 11:33:00,
2013-08-14 07:38:00,54.0,48.3,29.86,West,270,5.8,5.8,81,0.00,CLR,,0.00,WeatherDisplay:10.37,2013-08-14 11:38:00,
2013-08-14 07:43:00,54.1,48.4,29.86,SW,225,11.4,11.4,81,0.00,CLR,,0.00,WeatherDisplay:10.37,2013-08-14 11:43:00,
2013-08-14 07:48:00,54.5,48.5,29.87,SW,225,6.9,6.9,80,0.00,CLR,,0.00,WeatherDisplay:10.37,2013-08-14 11:48:00,
2013-08-14 07:53:00,54.7,48.6,29.87,WSW,248,8.1,8.1,80,0.00,CLR,,0.00,WeatherDisplay:10.37,2013-08-14 11:53:00,
2013-08-14 07:58:00,54.7,48.6,29.87,SW,225,8.3,8.3,80,0.00,CLR,,0.00,WeatherDisplay:10.37,2013-08-14 11:58:00,
2013-08-14 08:03:00,55.0,49.3,29.87,WSW,248,6.9,6.9,81,0.00,CLR,,0.00,WeatherDisplay:10.37,2013-08-14 12:03:00,
2013-08-14 08:08:00,55.2,48.8,29.87,West,270,10.4,10.4,79,0.00,CLR,,0.00,WeatherDisplay:10.37,2013-08-14 12:08:00,
2013-08-14 08:13:00,55.4,49.0,29.87,WSW,248,9.2,9.2,79,0.00,CLR,,0.00,WeatherDisplay:10.37,2013-08-14 12:13:00,
2013-08-14 08:18:00,55.6,49.2,29.87,West,270,10.4,10.4,79,0.00,CLR,,0.00,WeatherDisplay:10.37,2013-08-14 12:18:00,
2013-08-14 08:23:00,55.9,49.5,29.88,West,270,9.4,9.4,79,0.00,CLR,,0.00,WeatherDisplay:10.37,2013-08-14 12:23:00,
2013-08-14 08:28:00,56.1,49.3,29.88,WSW,248,10.4,10.4,78,0.00,CLR,,0.00,WeatherDisplay:10.37,2013-08-14 12:28:00,
2013-08-14 08:33:00,56.5,49.7,29.88,WSW,248,6.9,6.9,78,0.00,CLR,,0.00,WeatherDisplay:10.37,2013-08-14 12:33:00,
2013-08-14 08:38:00,57.4,50.2,29.88,WSW,248,7.3,7.3,77,0.00,CLR,,0.00,WeatherDisplay:10.37,2013-08-14 12:38:00,
2013-08-14 08:43:00,57.7,50.5,29.88,SW,225,5.8,6.0,77,0.00,CLR,,0.00,WeatherDisplay:10.37,2013-08-14 12:43:00,
2013-08-14 08:48:00,57.6,50.1,29.89,West,270,10.4,10.4,76,0.00,CLR,,0.00,WeatherDisplay:10.37,2013-08-14 12:48:00,
2013-08-14 08:53:00,58.1,50.2,29.89,West,270,11.9,11.9,75,0.00,CLR,,0.00,WeatherDisplay:10.37,2013-08-14 12:53:00,
2013-08-14 08:58:00,58.3,50.8,29.89,West,270,7.3,7.3,76,0.00,CLR,,0.00,WeatherDisplay:10.37,2013-08-14 12:58:00,
2013-08-14 09:03:00,57.9,50.0,29.89,SW,225,13.0,13.0,75,0.00,CLR,,0.00,WeatherDisplay:10.37,2013-08-14 13:03:00,
2013-08-14 09:08:00,57.9,50.4,29.89,WSW,248,12.7,12.7,76,0.00,CLR,,0.00,WeatherDisplay:10.37,2013-08-14 13:08:00,
2013-08-14 09:13:00,57.9,50.4,29.89,WSW,248,10.4,10.4,76,0.00,CLR,,0.00,WeatherDisplay:10.37,2013-08-14 13:13:00,
2013-08-14 09:18:00,58.3,50.8,29.89,SW,225,10.4,10.4,76,0.00,CLR,,0.00,WeatherDisplay:10.37,2013-08-14 13:18:00,
2013-08-14 09:23:00,58.5,50.6,29.90,WSW,248,10.4,10.4,75,0.00,CLR,,0.00,WeatherDisplay:10.37,2013-08-14 13:23:00,
2013-08-14 09:28:00,58.5,50.6,29.90,WSW,248,10.4,10.4,75,0.00,CLR,,0.00,WeatherDisplay:10.37,2013-08-14 13:28:00,
2013-08-14 09:33:00,59.0,51.1,29.90,WNW,292,8.1,8.1,75,0.00,CLR,,0.00,WeatherDisplay:10.37,2013-08-14 13:33:00,
2013-08-14 09:38:00,59.9,51.6,29.90,WSW,248,12.7,12.7,74,0.00,CLR,,0.00,WeatherDisplay:10.37,2013-08-14 13:38:00,
2013-08-14 09:43:00,59.9,51.6,29.90,WSW,248,14.0,14.0,74,0.00,CLR,,0.00,WeatherDisplay:10.37,2013-08-14 13:43:00,
2013-08-14 09:48:00,59.5,51.2,29.90,WSW,248,15.0,15.0,74,0.00,CLR,,0.00,WeatherDisplay:10.37,2013-08-14 13:48:00,
2013-08-14 09:53:00,59.5,51.2,29.90,SW,225,12.7,12.7,74,0.00,CLR,,0.00,WeatherDisplay:10.37,2013-08-14 13:53:00,
2013-08-14 09:58:00,59.4,51.1,29.90,SW,225,10.4,10.4,74,0.00,CLR,,0.00,WeatherDisplay:10.37,2013-08-14 13:58:00,
2013-08-14 10:03:00,59.2,51.3,29.90,West,270,8.3,8.3,75,0.00,CLR,,0.00,WeatherDisplay:10.37,2013-08-14 14:03:00,
2013-08-14 10:08:00,59.0,51.1,29.90,SW,225,10.9,10.9,75,0.00,CLR,,0.00,WeatherDisplay:10.37,2013-08-14 14:08:00,
2013-08-14 10:13:00,59.0,51.1,29.91,West,270,10.4,10.4,75,0.00,CLR,,0.00,WeatherDisplay:10.37,2013-08-14 14:13:00,
2013-08-14 10:18:00,59.2,51.3,29.91,WNW,292,9.2,9.2,75,0.00,CLR,,0.00,WeatherDisplay:10.37,2013-08-14 14:18:00,
2013-08-14 10:23:00,58.6,51.1,29.91,NNW,338,16.1,16.1,76,0.00,CLR,,0.00,WeatherDisplay:10.37,2013-08-14 14:23:00,
2013-08-14 10:28:00,59.4,51.8,29.91,WNW,292,5.8,5.8,76,0.00,CLR,,0.00,WeatherDisplay:10.37,2013-08-14 14:28:00,
2013-08-14 10:33:00,59.5,51.9,29.91,NNW,338,9.2,9.2,76,0.00,BKN,,0.00,WeatherDisplay:10.37,2013-08-14 14:33:00,
2013-08-14 10:38:00,59.2,51.6,29.92,West,270,9.4,9.4,76,0.00,BKN,,0.00,WeatherDisplay:10.37,2013-08-14 14:38:00,
2013-08-14 10:43:00,60.3,52.3,29.92,WNW,292,8.1,8.1,75,0.00,BKN,,0.00,WeatherDisplay:10.37,2013-08-14 14:43:00,
2013-08-14 10:48:00,61.0,52.7,29.92,WSW,248,6.9,6.9,74,0.00,BKN,,0.00,WeatherDisplay:10.37,2013-08-14 14:48:00,
2013-08-14 10:53:00,62.4,53.3,29.92,West,270,9.2,9.2,72,0.00,BKN,,0.00,WeatherDisplay:10.37,2013-08-14 14:53:00,
2013-08-14 10:58:00,61.2,52.5,29.92,West,270,10.4,10.4,73,0.00,BKN,,0.00,WeatherDisplay:10.37,2013-08-14 14:58:00,
2013-08-14 11:03:00,61.0,52.3,29.92,West,270,10.4,10.4,73,0.00,BKN,,0.00,WeatherDisplay:10.37,2013-08-14 15:03:00,
2013-08-14 11:08:00,61.3,52.6,29.92,West,270,10.4,10.4,73,0.00,BKN,,0.00,WeatherDisplay:10.37,2013-08-14 15:08:00,
2013-08-14 11:13:00,60.4,53.2,29.93,WSW,248,10.4,10.4,77,0.00,BKN,,0.00,WeatherDisplay:10.37,2013-08-14 15:13:00,
2013-08-14 11:18:00,59.4,52.5,29.93,West,270,9.4,9.4,78,0.00,BKN,,0.00,WeatherDisplay:10.37,2013-08-14 15:18:00,
2013-08-14 11:23:00,59.9,52.3,29.92,West,270,8.1,8.1,76,0.00,BKN,,0.00,WeatherDisplay:10.37,2013-08-14 15:23:00,
2013-08-14 11:28:00,59.9,52.3,29.92,West,270,8.1,8.1,76,0.00,BKN,,0.00,WeatherDisplay:10.37,2013-08-14 15:28:00,
2013-08-14 11:33:00,60.8,52.5,29.92,WSW,248,12.7,12.7,74,0.00,OVC,,0.00,WeatherDisplay:10.37,2013-08-14 15:33:00,
2013-08-14 11:38:00,61.2,52.8,29.93,West,270,6.9,6.9,74,0.00,OVC,,0.00,WeatherDisplay:10.37,2013-08-14 15:38:00,
2013-08-14 11:43:00,62.2,53.1,29.93,West,270,10.4,10.4,72,0.00,OVC,,0.00,WeatherDisplay:10.37,2013-08-14 15:43:00,
2013-08-14 11:48:00,61.5,52.4,29.93,SSE,158,5.8,5.8,72,0.00,OVC,,0.00,WeatherDisplay:10.37,2013-08-14 15:48:00,
2013-08-14 11:54:00,62.2,53.1,29.93,West,270,8.3,8.3,72,0.00,OVC,,0.00,WeatherDisplay:10.37,2013-08-14 15:54:00,
2013-08-14 11:59:00,63.0,53.8,29.93,North,360,4.6,4.6,72,0.00,OVC,,0.00,WeatherDisplay:10.37,2013-08-14 15:59:00,
2013-08-14 12:04:00,62.6,53.8,29.93,SW,225,8.1,8.1,73,0.00,OVC,,0.00,WeatherDisplay:10.37,2013-08-14 16:04:00,
2013-08-14 12:09:00,63.0,54.2,29.93,West,270,8.1,8.1,73,0.00,OVC,,0.00,WeatherDisplay:10.37,2013-08-14 16:09:00,
2013-08-14 12:14:00,62.4,53.6,29.93,SW,225,10.4,10.4,73,0.00,OVC,,0.00,WeatherDisplay:10.37,2013-08-14 16:14:00,
2013-08-14 12:19:00,62.6,53.8,29.93,SW,225,8.1,8.1,73,0.00,OVC,,0.00,WeatherDisplay:10.37,2013-08-14 16:19:00,
2013-08-14 12:24:00,63.7,54.5,29.93,WSW,248,8.1,8.1,72,0.00,OVC,,0.00,WeatherDisplay:10.37,2013-08-14 16:24:00,
2013-08-14 12:29:00,64.6,55.0,29.93,SW,225,5.8,5.8,71,0.00,OVC,,0.00,WeatherDisplay:10.37,2013-08-14 16:29:00,
2013-08-14 12:34:00,63.5,54.3,29.92,West,270,8.1,8.1,72,0.00,OVC,,0.00,WeatherDisplay:10.37,2013-08-14 16:34:00,
2013-08-14 12:39:00,62.6,52.7,29.92,West,270,7.8,7.8,70,0.00,OVC,,0.00,WeatherDisplay:10.37,2013-08-14 16:39:00,
2013-08-14 12:44:00,63.1,53.5,29.92,West,270,10.4,10.4,71,0.00,OVC,,0.00,WeatherDisplay:10.37,2013-08-14 16:44:00,
2013-08-14 12:50:00,63.3,53.3,29.92,WSW,244,12.0,14.0,70,0.00,OVC,,0.00,WeatherDisplay:10.37,2013-08-14 16:50:00,
2013-08-14 12:55:00,63.1,52.8,29.92,WSW,245,9.0,13.0,69,0.00,OVC,,0.00,WeatherDisplay:10.37,2013-08-14 16:55:00,
2013-08-14 13:00:00,63.5,53.5,29.93,WSW,257,8.0,9.0,70,0.00,OVC,,0.00,WeatherDisplay:10.37,2013-08-14 17:00:00,
2013-08-14 13:05:00,63.5,53.9,29.93,SW,225,10.9,10.9,71,0.00,OVC,,0.00,WeatherDisplay:10.37,2013-08-14 17:05:00,
2013-08-14 13:10:00,62.8,53.6,29.93,SW,225,10.4,10.4,72,0.00,OVC,,0.00,WeatherDisplay:10.37,2013-08-14 17:10:00,
2013-08-14 13:15:00,62.6,53.4,29.93,WSW,248,10.4,10.4,72,0.00,OVC,,0.00,WeatherDisplay:10.37,2013-08-14 17:15:00,
2013-08-14 13:20:00,62.6,53.8,29.93,WSW,248,9.2,9.2,73,0.00,OVC,,0.00,WeatherDisplay:10.37,2013-08-14 17:20:00,
2013-08-14 13:25:00,63.0,54.2,29.93,WSW,248,9.2,9.2,73,0.00,OVC,,0.00,WeatherDisplay:10.37,2013-08-14 17:25:00,
2013-08-14 13:30:00,63.1,53.5,29.93,West,270,8.1,8.1,71,0.00,OVC,,0.00,WeatherDisplay:10.37,2013-08-14 17:30:00,
2013-08-14 13:35:00,63.3,53.7,29.93,WSW,248,7.8,7.8,71,0.00,OVC,,0.00,WeatherDisplay:10.37,2013-08-14 17:35:00,
2013-08-14 13:40:00,64.8,54.8,29.93,SW,225,5.8,5.8,70,0.00,OVC,,0.00,WeatherDisplay:10.37,2013-08-14 17:40:00,
2013-08-14 13:45:00,64.2,54.2,29.93,WSW,248,6.9,6.9,70,0.00,OVC,,0.00,WeatherDisplay:10.37,2013-08-14 17:45:00,
2013-08-14 13:50:00,65.8,54.5,29.93,WSW,248,7.3,7.3,67,0.00,OVC,,0.00,WeatherDisplay:10.37,2013-08-14 17:50:00,
2013-08-14 13:56:00,64.8,54.0,29.93,East,90,8.1,8.1,68,0.00,OVC,,0.00,WeatherDisplay:10.37,2013-08-14 17:56:00,
2013-08-14 14:01:00,68.0,55.8,29.93,SW,225,4.6,4.6,65,0.00,OVC,,0.00,WeatherDisplay:10.37,2013-08-14 18:01:00,
2013-08-14 14:06:00,66.2,54.5,29.93,SW,225,5.8,5.8,66,0.00,OVC,,0.00,WeatherDisplay:10.37,2013-08-14 18:06:00,
2013-08-14 14:12:00,66.2,54.9,29.93,West,270,6.9,6.9,67,0.00,OVC,,0.00,WeatherDisplay:10.37,2013-08-14 18:12:00,
2013-08-14 14:17:00,66.0,55.1,29.93,SW,225,8.3,8.3,68,0.00,OVC,,0.00,WeatherDisplay:10.37,2013-08-14 18:17:00,
2013-08-14 14:23:00,64.4,54.0,29.93,WSW,248,11.4,11.4,69,0.00,OVC,,0.00,WeatherDisplay:10.37,2013-08-14 18:23:00,
2013-08-14 14:28:00,63.3,53.7,29.93,West,270,12.7,12.7,71,0.00,OVC,,0.00,WeatherDisplay:10.37,2013-08-14 18:28:00,
2013-08-14 14:33:00,62.8,54.0,29.93,SW,225,15.0,15.0,73,0.00,OVC,,0.00,WeatherDisplay:10.37,2013-08-14 18:33:00,
2013-08-14 14:39:00,62.8,54.4,29.93,SW,225,16.1,16.1,74,0.00,OVC,,0.00,WeatherDisplay:10.37,2013-08-14 18:39:00,
2013-08-14 14:44:00,63.1,54.3,29.93,West,270,13.8,13.8,73,0.00,OVC,,0.00,WeatherDisplay:10.37,2013-08-14 18:44:00,
2013-08-14 14:49:00,62.6,54.6,29.93,WSW,248,11.5,11.5,75,0.00,OVC,,0.00,WeatherDisplay:10.37,2013-08-14 18:49:00,
2013-08-14 14:54:00,62.2,54.2,29.93,WSW,248,11.5,11.5,75,0.00,OVC,,0.00,WeatherDisplay:10.37,2013-08-14 18:54:00,
2013-08-14 14:59:00,61.9,54.2,29.93,SW,225,6.9,6.9,76,0.00,OVC,,0.00,WeatherDisplay:10.37,2013-08-14 18:59:00,
2013-08-14 15:04:00,62.8,54.8,29.93,West,270,9.2,9.2,75,0.00,OVC,,0.00,WeatherDisplay:10.37,2013-08-14 19:04:00,
2013-08-14 15:12:00,63.9,54.3,29.92,West,270,9.2,9.2,71,0.00,OVC,,0.00,WeatherDisplay:10.37,2013-08-14 19:12:00,
2013-08-14 15:17:00,64.4,55.2,29.92,West,270,7.8,7.8,72,0.00,OVC,,0.00,WeatherDisplay:10.37,2013-08-14 19:17:00,
2013-08-14 15:22:00,65.1,54.7,29.92,WSW,248,9.9,9.9,69,0.00,OVC,,0.00,WeatherDisplay:10.37,2013-08-14 19:22:00,
2013-08-14 15:28:00,66.7,55.0,29.92,WSW,248,13.8,13.8,66,0.00,OVC,,0.00,WeatherDisplay:10.37,2013-08-14 19:28:00,
2013-08-14 15:33:00,67.6,55.0,29.92,WSW,248,9.2,9.2,64,0.00,OVC,,0.00,WeatherDisplay:10.37,2013-08-14 19:33:00,
2013-08-14 15:38:00,66.4,54.7,29.92,WNW,292,10.4,10.4,66,0.00,OVC,,0.00,WeatherDisplay:10.37,2013-08-14 19:38:00,
2013-08-14 15:43:00,67.5,55.3,29.92,SW,225,12.7,12.7,65,0.00,OVC,,0.00,WeatherDisplay:10.37,2013-08-14 19:43:00,
2013-08-14 15:48:00,68.0,54.9,29.92,WSW,248,13.8,13.8,63,0.00,OVC,,0.00,WeatherDisplay:10.37,2013-08-14 19:48:00,
2013-08-14 15:53:00,68.0,54.9,29.92,West,270,13.8,13.8,63,0.00,OVC,,0.00,WeatherDisplay:10.37,2013-08-14 19:53:00,
2013-08-14 15:59:00,70.3,54.8,29.92,WSW,248,10.4,10.4,58,0.00,OVC,,0.00,WeatherDisplay:10.37,2013-08-14 19:59:00,
2013-08-14 16:04:00,69.8,54.8,29.92,WSW,248,11.5,11.5,59,0.00,OVC,,0.00,WeatherDisplay:10.37,2013-08-14 20:04:00,
2013-08-14 16:09:00,68.4,53.0,29.92,WSW,248,14.5,14.5,58,0.00,OVC,,0.00,WeatherDisplay:10.37,2013-08-14 20:09:00,
2013-08-14 16:14:00,67.6,52.3,29.92,WSW,248,10.4,10.4,58,0.00,OVC,,0.00,WeatherDisplay:10.37,2013-08-14 20:14:00,
2013-08-14 16:24:00,67.5,52.2,29.92,West,270,12.7,12.7,58,0.00,OVC,,0.00,WeatherDisplay:10.37,2013-08-14 20:24:00,
2013-08-14 16:29:00,66.7,52.4,29.92,West,270,11.5,11.5,60,0.00,OVC,,0.00,WeatherDisplay:10.37,2013-08-14 20:29:00,
2013-08-14 16:35:00,68.2,52.4,29.92,SW,225,11.5,11.5,57,0.00,BKN,,0.00,WeatherDisplay:10.37,2013-08-14 20:35:00,
2013-08-14 16:40:00,68.2,53.3,29.92,West,270,10.4,10.4,59,0.00,BKN,,0.00,WeatherDisplay:10.37,2013-08-14 20:40:00,
2013-08-14 16:45:00,68.4,53.5,29.92,WSW,248,7.3,7.3,59,0.00,BKN,,0.00,WeatherDisplay:10.37,2013-08-14 20:45:00,
2013-08-14 16:50:00,68.9,52.6,29.92,West,270,10.4,10.4,56,0.00,BKN,,0.00,WeatherDisplay:10.37,2013-08-14 20:50:00,
2013-08-14 16:55:00,68.2,52.9,29.92,West,270,9.4,9.4,58,0.00,BKN,,0.00,WeatherDisplay:10.37,2013-08-14 20:55:00,
2013-08-14 17:00:00,67.8,52.9,29.92,SW,225,16.1,16.1,59,0.00,BKN,,0.00,WeatherDisplay:10.37,2013-08-14 21:00:00,
2013-08-14 17:06:00,67.3,53.4,29.92,WSW,248,11.5,11.5,61,0.00,OVC,,0.00,WeatherDisplay:10.37,2013-08-14 21:06:00,
2013-08-14 17:11:00,66.9,53.9,29.92,West,270,9.2,9.2,63,0.00,OVC,,0.00,WeatherDisplay:10.37,2013-08-14 21:11:00,
2013-08-14 17:16:00,66.9,53.5,29.92,WSW,248,9.2,9.2,62,0.00,OVC,,0.00,WeatherDisplay:10.37,2013-08-14 21:16:00,
2013-08-14 17:21:00,67.5,54.5,29.92,West,270,5.8,5.8,63,0.00,OVC,,0.00,WeatherDisplay:10.37,2013-08-14 21:21:00,
2013-08-14 17:26:00,67.5,54.0,29.93,WSW,248,6.9,6.9,62,0.00,OVC,,0.00,WeatherDisplay:10.37,2013-08-14 21:26:00,
2013-08-14 17:31:00,68.9,54.0,29.93,West,270,8.1,8.1,59,0.00,OVC,,0.00,WeatherDisplay:10.37,2013-08-14 21:31:00,
2013-08-14 17:36:00,68.5,53.6,29.93,WSW,248,6.9,6.9,59,0.00,OVC,,0.00,WeatherDisplay:10.37,2013-08-14 21:36:00,
2013-08-14 17:41:00,67.8,53.9,29.93,SW,225,5.8,5.8,61,0.00,OVC,,0.00,WeatherDisplay:10.37,2013-08-14 21:41:00,
2013-08-14 17:46:00,67.6,53.2,29.92,WSW,248,6.9,6.9,60,0.00,OVC,,0.00,WeatherDisplay:10.37,2013-08-14 21:46:00,
2013-08-14 17:51:00,67.1,53.6,29.92,SW,225,4.6,4.6,62,0.00,OVC,,0.00,WeatherDisplay:10.37,2013-08-14 21:51:00,
2013-08-14 17:56:00,67.5,53.6,29.92,WSW,248,3.7,3.7,61,0.00,OVC,,0.00,WeatherDisplay:10.37,2013-08-14 21:56:00,
2013-08-14 18:01:00,67.5,53.6,29.93,WSW,248,3.7,3.7,61,0.00,FEW,,0.00,WeatherDisplay:10.37,2013-08-14 22:01:00,
2013-08-14 18:06:00,68.7,53.3,29.93,WSW,248,5.8,5.8,58,0.00,FEW,,0.00,WeatherDisplay:10.37,2013-08-14 22:06:00,
2013-08-14 18:11:00,70.9,54.4,29.92,North,360,3.5,3.5,56,0.00,FEW,,0.00,WeatherDisplay:10.37,2013-08-14 22:11:00,
2013-08-14 18:16:00,68.7,52.4,29.92,WNW,292,10.4,10.4,56,0.00,FEW,,0.00,WeatherDisplay:10.37,2013-08-14 22:16:00,
2013-08-14 18:21:00,67.5,52.2,29.92,West,270,10.4,10.4,58,0.00,FEW,,0.00,WeatherDisplay:10.37,2013-08-14 22:21:00,
2013-08-14 18:26:00,69.1,53.7,29.92,WSW,248,8.1,8.1,58,0.00,FEW,,0.00,WeatherDisplay:10.37,2013-08-14 22:26:00,
2013-08-14 18:31:00,69.3,53.4,29.92,NW,315,6.9,6.9,57,0.00,FEW,,0.00,WeatherDisplay:10.37,2013-08-14 22:31:00,
2013-08-14 18:36:00,69.8,53.4,29.92,WNW,292,9.9,9.9,56,0.00,FEW,,0.00,WeatherDisplay:10.37,2013-08-14 22:36:00,
2013-08-14 18:41:00,67.6,53.7,29.92,West,270,9.2,9.2,61,0.00,FEW,,0.00,WeatherDisplay:10.37,2013-08-14 22:41:00,
2013-08-14 18:46:00,66.9,53.5,29.92,WSW,248,5.8,5.8,62,0.00,FEW,,0.00,WeatherDisplay:10.37,2013-08-14 22:46:00,
2013-08-14 18:51:00,66.4,53.8,29.92,SW,225,5.3,5.3,64,0.00,FEW,,0.00,WeatherDisplay:10.37,2013-08-14 22:51:00,
2013-08-14 18:56:00,67.5,54.0,29.92,WSW,248,5.8,5.8,62,0.00,FEW,,0.00,WeatherDisplay:10.37,2013-08-14 22:56:00,
2013-08-14 19:02:00,67.5,54.0,29.92,WSW,248,5.8,5.8,62,0.00,BKN,,0.00,WeatherDisplay:10.37,2013-08-14 23:02:00,
2013-08-14 19:07:00,66.6,53.6,29.92,SW,225,4.6,4.6,63,0.00,BKN,,0.00,WeatherDisplay:10.37,2013-08-14 23:07:00,
2013-08-14 19:12:00,66.2,53.7,29.92,West,270,4.6,4.6,64,0.00,BKN,,0.00,WeatherDisplay:10.37,2013-08-14 23:12:00,
2013-08-14 19:17:00,65.8,53.3,29.92,West,270,5.8,5.8,64,0.00,BKN,,0.00,WeatherDisplay:10.37,2013-08-14 23:17:00,
2013-08-14 19:23:00,66.2,53.7,29.92,West,270,4.6,4.6,64,0.00,BKN,,0.00,WeatherDisplay:10.37,2013-08-14 23:23:00,
2013-08-14 19:28:00,65.7,53.2,29.92,West,270,4.6,4.6,64,0.00,BKN,,0.00,WeatherDisplay:10.37,2013-08-14 23:28:00,
2013-08-14 19:33:00,65.1,54.7,29.92,WSW,248,4.2,4.2,69,0.00,BKN,,0.00,WeatherDisplay:10.37,2013-08-14 23:33:00,
2013-08-14 19:38:00,64.6,53.0,29.92,West,270,2.7,2.7,66,0.00,BKN,,0.00,WeatherDisplay:10.37,2013-08-14 23:38:00,
2013-08-14 19:43:00,65.1,53.9,29.92,West,270,2.7,2.7,67,0.00,BKN,,0.00,WeatherDisplay:10.37,2013-08-14 23:43:00,
2013-08-14 19:49:00,65.8,54.1,29.93,West,270,3.5,3.5,66,0.00,BKN,,0.00,WeatherDisplay:10.37,2013-08-14 23:49:00,
2013-08-14 19:54:00,65.7,54.8,29.93,SW,225,2.7,2.7,68,0.00,BKN,,0.00,WeatherDisplay:10.37,2013-08-14 23:54:00,
2013-08-14 19:59:00,65.3,53.2,29.93,West,270,4.6,4.6,65,0.00,BKN,,0.00,WeatherDisplay:10.37,2013-08-14 23:59:00,
2013-08-14 20:04:00,64.4,52.8,29.93,West,270,3.5,3.5,66,0.00,BKN,,0.00,WeatherDisplay:10.37,2013-08-15 00:04:00,
2013-08-14 20:09:00,63.9,52.3,29.93,West,270,4.6,4.6,66,0.00,BKN,,0.00,WeatherDisplay:10.37,2013-08-15 00:09:00,
2013-08-14 20:14:00,63.5,52.3,29.94,West,270,3.5,3.5,67,0.00,BKN,,0.00,WeatherDisplay:10.37,2013-08-15 00:14:00,
2013-08-14 20:16:00,63.5,52.3,29.94,SW,225,3.5,3.5,67,0.00,BKN,,0.00,WeatherDisplay:10.37,2013-08-15 00:16:00,
2013-08-14 20:21:00,63.1,52.4,29.94,West,270,4.6,4.6,68,0.00,BKN,,0.00,WeatherDisplay:10.37,2013-08-15 00:21:00,
2013-08-14 20:26:00,62.8,52.5,29.94,WSW,248,4.6,4.6,69,0.00,BKN,,0.00,WeatherDisplay:10.37,2013-08-15 00:26:00,
2013-08-14 20:31:00,62.6,52.3,29.94,West,270,4.6,4.6,69,0.00,BKN,,0.00,WeatherDisplay:10.37,2013-08-15 00:31:00,
2013-08-14 20:36:00,62.4,52.1,29.94,West,270,4.6,4.6,69,0.00,BKN,,0.00,WeatherDisplay:10.37,2013-08-15 00:36:00,
2013-08-14 20:41:00,62.4,52.1,29.94,WNW,292,4.6,4.6,69,0.00,BKN,,0.00,WeatherDisplay:10.37,2013-08-15 00:41:00,
2013-08-14 20:46:00,62.4,52.1,29.94,NNW,338,4.6,4.6,69,0.00,BKN,,0.00,WeatherDisplay:10.37,2013-08-15 00:46:00,
2013-08-14 20:51:00,62.2,51.9,29.94,NW,315,3.5,3.5,69,0.00,BKN,,0.00,WeatherDisplay:10.37,2013-08-15 00:51:00,
2013-08-14 20:56:00,61.9,52.0,29.94,SW,225,4.6,4.6,70,0.00,BKN,,0.00,WeatherDisplay:10.37,2013-08-15 00:56:00,
2013-08-14 21:01:00,61.7,52.2,29.95,WSW,248,4.6,4.6,71,0.00,CLR,,0.00,WeatherDisplay:10.37,2013-08-15 01:01:00,
2013-08-14 21:06:00,61.7,52.2,29.95,WNW,292,3.5,3.5,71,0.00,CLR,,0.00,WeatherDisplay:10.37,2013-08-15 01:06:00,
2013-08-14 21:11:00,61.0,52.3,29.95,SW,225,3.7,3.7,73,0.00,CLR,,0.00,WeatherDisplay:10.37,2013-08-15 01:11:00,
2013-08-14 21:16:00,60.8,52.5,29.95,West,270,3.5,3.5,74,0.00,CLR,,0.00,WeatherDisplay:10.37,2013-08-15 01:16:00,
2013-08-14 21:21:00,60.6,52.3,29.95,West,270,4.6,4.6,74,0.00,CLR,,0.00,WeatherDisplay:10.37,2013-08-15 01:21:00,
2013-08-14 21:26:00,60.6,52.3,29.95,West,270,3.7,3.7,74,0.00,CLR,,0.00,WeatherDisplay:10.37,2013-08-15 01:26:00,
2013-08-14 21:31:00,60.4,52.1,29.95,West,270,3.7,3.7,74,0.00,CLR,,0.00,WeatherDisplay:10.37,2013-08-15 01:31:00,
2013-08-14 21:36:00,60.8,52.1,29.95,WSW,248,4.6,4.6,73,0.00,CLR,,0.00,WeatherDisplay:10.37,2013-08-15 01:36:00,
2013-08-14 21:41:00,60.4,51.7,29.95,West,270,2.7,2.7,73,0.00,CLR,,0.00,WeatherDisplay:10.37,2013-08-15 01:41:00,
2013-08-14 21:46:00,60.1,51.8,29.96,SW,225,2.3,2.6,74,0.00,CLR,,0.00,WeatherDisplay:10.37,2013-08-15 01:46:00,
2013-08-14 21:51:00,59.9,52.0,29.96,West,270,3.5,3.5,75,0.00,CLR,,0.00,WeatherDisplay:10.37,2013-08-15 01:51:00,
2013-08-14 21:56:00,59.5,51.6,29.96,West,270,3.7,3.7,75,0.00,CLR,,0.00,WeatherDisplay:10.37,2013-08-15 01:56:00,
2013-08-14 22:01:00,59.4,51.5,29.97,West,270,4.6,4.6,75,0.00,CLR,,0.00,WeatherDisplay:10.37,2013-08-15 02:01:00,
2013-08-14 22:06:00,59.4,51.5,29.97,West,270,3.7,3.7,75,0.00,CLR,,0.00,WeatherDisplay:10.37,2013-08-15 02:06:00,
2013-08-14 22:11:00,59.4,51.5,29.97,NW,315,2.7,2.7,75,0.00,CLR,,0.00,WeatherDisplay:10.37,2013-08-15 02:11:00,
2013-08-14 22:16:00,59.4,51.5,29.97,NW,315,4.6,4.6,75,0.00,CLR,,0.00,WeatherDisplay:10.37,2013-08-15 02:16:00,
2013-08-14 22:17:00,59.4,51.5,29.97,WNW,292,4.6,4.6,75,0.00,CLR,,0.00,WeatherDisplay:10.37,2013-08-15 02:17:00,
2013-08-14 22:22:00,59.0,51.4,29.97,WNW,292,4.7,4.7,76,0.00,CLR,,0.00,WeatherDisplay:10.37,2013-08-15 02:22:00,
2013-08-14 22:27:00,58.8,51.2,29.97,West,270,3.5,3.5,76,0.00,CLR,,0.00,WeatherDisplay:10.37,2013-08-15 02:27:00,
2013-08-14 22:32:00,58.8,51.2,29.97,West,270,3.5,3.5,76,0.00,CLR,,0.00,WeatherDisplay:10.37,2013-08-15 02:32:00,
2013-08-14 22:37:00,58.6,51.1,29.97,WNW,292,3.2,3.2,76,0.00,CLR,,0.00,WeatherDisplay:10.37,2013-08-15 02:37:00,
2013-08-14 22:42:00,58.8,51.2,29.97,NNE,22,3.5,3.5,76,0.00,CLR,,0.00,WeatherDisplay:10.37,2013-08-15 02:42:00,
2013-08-14 22:47:00,59.2,51.3,29.97,NE,45,3.7,3.7,75,0.00,CLR,,0.00,WeatherDisplay:10.37,2013-08-15 02:47:00,
2013-08-14 22:52:00,59.2,51.3,29.97,ESE,112,3.7,3.7,75,0.00,CLR,,0.00,WeatherDisplay:10.37,2013-08-15 02:52:00,
2013-08-14 22:57:00,59.0,51.1,29.97,WSW,248,2.3,2.3,75,0.00,CLR,,0.00,WeatherDisplay:10.37,2013-08-15 02:57:00,
2013-08-14 23:02:00,58.5,51.0,29.97,ESE,112,3.2,3.2,76,0.00,CLR,,0.00,WeatherDisplay:10.37,2013-08-15 03:02:00,
2013-08-14 23:07:00,58.5,51.0,29.97,NNW,338,1.7,1.7,76,0.00,CLR,,0.00,WeatherDisplay:10.37,2013-08-15 03:07:00,
2013-08-14 23:12:00,58.1,50.6,29.97,West,270,2.7,2.7,76,0.00,CLR,,0.00,WeatherDisplay:10.37,2013-08-15 03:12:00,
2013-08-14 23:17:00,57.9,50.7,29.97,ENE,68,2.3,2.9,77,0.00,CLR,,0.00,WeatherDisplay:10.37,2013-08-15 03:17:00,
2013-08-14 23:23:00,57.6,50.4,29.97,North,360,2.3,2.3,77,0.00,CLR,,0.00,WeatherDisplay:10.37,2013-08-15 03:23:00,
2013-08-14 23:28:00,57.6,50.8,29.97,WNW,292,3.5,3.5,78,0.00,CLR,,0.00,WeatherDisplay:10.37,2013-08-15 03:28:00,
2013-08-14 23:33:00,57.6,50.8,29.97,West,270,3.5,3.5,78,0.00,CLR,,0.00,WeatherDisplay:10.37,2013-08-15 03:33:00,
2013-08-14 23:38:00,57.4,50.6,29.98,West,270,3.5,3.5,78,0.00,CLR,,0.00,WeatherDisplay:10.37,2013-08-15 03:38:00,
2013-08-14 23:43:00,57.2,50.4,29.98,West,270,1.1,1.1,78,0.00,CLR,,0.00,WeatherDisplay:10.37,2013-08-15 03:43:00,
2013-08-14 23:48:00,57.0,50.2,29.98,NW,315,3.5,3.5,78,0.00,CLR,,0.00,WeatherDisplay:10.37,2013-08-15 03:48:00,
2013-08-14 23:53:00,57.0,50.2,29.98,West,270,3.7,3.7,78,0.00,CLR,,0.00,WeatherDisplay:10.37,2013-08-15 03:53:00,
2013-08-14 23:58:00,57.0,50.2,29.98,SW,225,3.5,3.5,78,0.00,CLR,,0.00,WeatherDisplay:10.37,2013-08-15 03:58:00,